CW0343 Weather Reports


Display with metric or nautical units.
time (UTC)temp
F
wind
direction
speed
MPH
gust
MPH
rain 1hr
in
rain 24hr
in
rain mn
in
humidity
%
barometer
mb
20260508185804 69 122 6.0 12.0 0.00 0.00 0.00 80 1015.7
20260508185306 68 124 7.0 15.0 0.00 0.00 0.00 81 1015.7
20260508183804 68 147 7.0 13.0 0.00 0.00 0.00 81 1015.6
20260508183305 68 145 6.0 12.0 0.00 0.00 0.00 81 1015.7
20260508182804 68 148 5.0 14.0 0.00 0.00 0.00 81 1015.6
20260508182306 68 143 5.0 10.0 0.00 0.00 0.00 81 1015.7
20260508181804 68 130 5.0 10.0 0.00 0.00 0.00 81 1015.7
20260508181305 68 147 4.0 12.0 0.00 0.00 0.00 81 1015.6
20260508180304 68 157 3.0 9.0 0.00 0.00 0.00 81 1015.6
20260508175804 68 150 5.0 9.0 0.00 0.00 0.00 81 1015.5
20260508175306 68 148 3.0 8.0 0.00 0.00 0.00 81 1015.5
20260508174804 68 132 3.0 8.0 0.00 0.00 0.00 81 1015.5
20260508173804 68 107 4.0 12.0 0.00 0.00 0.00 81 1015.5
20260508173304 68 122 2.0 9.0 0.00 0.00 0.00 81 1015.5
20260508172804 68 120 3.0 5.0 0.00 0.00 0.00 81 1015.6
20260508172307 68 126 5.0 12.0 0.00 0.00 0.00 81 1015.6
20260508171804 68 145 5.0 9.0 0.00 0.00 0.00 81 1015.6
20260508171304 68 124 7.0 10.0 0.00 0.00 0.00 81 1015.7
20260508170804 68 122 5.0 8.0 0.00 0.00 0.00 81 1015.7
20260508170304 68 127 4.0 8.0 0.00 0.00 0.00 81 1015.8
20260508165804 68 140 4.0 8.0 0.00 0.00 0.00 81 1015.7
20260508165307 69 162 6.0 13.0 0.00 0.00 0.00 81 1015.7
20260508164805 69 138 3.0 9.0 0.00 0.00 0.00 81 1015.7
20260508164304 69 119 3.0 7.0 0.00 0.00 0.00 81 1015.8
20260508163805 69 150 6.0 6.0 0.00 0.00 0.00 81 1015.9
20260508163306 69 150 6.0 9.0 0.00 0.00 0.00 81 1016.0
20260508162804 69 155 4.0 10.0 0.00 0.00 0.00 81 1016.0
20260508161804 69 143 6.0 14.0 0.00 0.00 0.00 81 1016.0
20260508161304 69 139 7.0 13.0 0.00 0.00 0.00 81 1016.0
20260508160804 69 133 5.0 12.0 0.00 0.00 0.00 81 1016.0
20260508160304 69 118 5.0 10.0 0.00 0.00 0.00 81 1016.0
20260508155804 69 143 5.0 9.0 0.00 0.00 0.00 81 1016.1
20260508155306 69 139 4.0 9.0 0.00 0.00 0.00 81 1016.2
20260508154805 69 125 6.0 9.0 0.00 0.00 0.00 81 1016.1
20260508153805 69 1 0.0 0.0 0.00 0.00 0.00 81 1016.2
20260508152306 69 162 3.0 3.0 0.00 0.00 0.00 81 1016.4
20260508151805 69 163 3.0 8.0 0.00 0.00 0.00 81 1016.4
20260508151304 69 6 1.0 7.0 0.00 0.00 0.00 81 1016.5
20260508150804 69 157 7.0 7.0 0.00 0.00 0.00 81 1016.3
20260508145804 69 135 8.0 14.0 0.00 0.00 0.00 81 1016.5
20260508145306 69 140 5.0 12.0 0.00 0.00 0.00 81 1016.5
20260508144803 69 122 9.0 14.0 0.00 0.00 0.00 81 1016.7
20260508144304 69 156 7.0 13.0 0.00 0.00 0.00 81 1016.7
20260508143804 69 143 6.0 12.0 0.00 0.00 0.00 81 1016.6
20260508143305 69 153 6.0 9.0 0.00 0.00 0.00 81 1016.7
20260508142804 69 136 7.0 14.0 0.00 0.00 0.00 81 1016.6
20260508142306 69 123 6.0 14.0 0.00 0.00 0.00 81 1016.7
20260508141804 69 154 6.0 12.0 0.00 0.00 0.00 81 1016.7
20260508141304 69 139 7.0 13.0 0.00 0.00 0.00 81 1016.8
20260508140804 69 173 3.0 10.0 0.00 0.00 0.00 81 1016.7
20260508140305 69 134 7.0 12.0 0.00 0.00 0.00 81 1016.8
20260508135804 69 126 3.0 9.0 0.00 0.00 0.00 81 1016.9
20260508135306 69 140 5.0 12.0 0.00 0.00 0.00 81 1016.9
20260508134804 69 148 5.0 12.0 0.00 0.00 0.00 81 1017.0
20260508134305 69 146 6.0 12.0 0.00 0.00 0.00 81 1017.0
20260508133805 69 145 6.0 9.0 0.00 0.00 0.00 81 1017.0
20260508133305 69 131 7.0 13.0 0.00 0.00 0.00 81 1017.0
20260508132805 69 135 3.0 10.0 0.00 0.00 0.00 81 1017.1
20260508131805 69 154 2.0 7.0 0.00 0.00 0.00 80 1017.2
20260508131304 69 126 4.0 8.0 0.00 0.00 0.00 80 1017.3
20260508130805 69 138 5.0 12.0 0.00 0.00 0.00 80 1017.4
20260508130304 69 149 3.0 7.0 0.00 0.00 0.00 80 1017.5
20260508125306 69 138 4.0 9.0 0.00 0.00 0.00 80 1017.5
20260508124804 70 120 3.0 6.0 0.00 0.00 0.00 80 1017.6
20260508124305 70 139 6.0 12.0 0.00 0.00 0.00 80 1017.5
20260508123805 70 152 3.0 12.0 0.00 0.00 0.00 80 1017.7
20260508123304 70 123 12.0 12.0 0.00 0.00 0.00 80 1017.8
20260508122806 70 123 12.0 12.0 0.00 0.00 0.00 80 1017.8
20260508122306 70 102 2.0 10.0 0.00 0.00 0.00 80 1017.8
20260508121806 70 2 0.0 0.0 0.00 0.00 0.00 80 1017.8
20260508121304 70 1 0.0 0.0 0.00 0.00 0.00 80 1017.8
20260508120805 70 6 1.0 7.0 0.00 0.00 0.00 80 1017.8
20260508120305 70 123 7.0 7.0 0.00 0.00 0.00 80 1017.8
20260508115804 70 123 7.0 8.0 0.00 0.00 0.00 80 1017.7
20260508115306 70 109 6.0 10.0 0.00 0.00 0.00 80 1017.8
20260508114805 70 126 7.0 13.0 0.00 0.00 0.00 80 1017.8
20260508114304 70 138 6.0 12.0 0.00 0.00 0.00 80 1017.8
20260508112806 70 146 5.0 9.0 0.00 0.00 0.00 80 1018.0
20260508111805 70 2 0.0 0.0 0.00 0.00 0.00 80 1018.0
20260508110805 70 138 7.0 7.0 0.00 0.00 0.00 80 1018.0
20260508110304 70 155 7.0 7.0 0.00 0.00 0.00 80 1017.9
20260508105306 70 147 7.0 12.0 0.00 0.00 0.00 80 1018.0
20260508104804 70 151 8.0 12.0 0.00 0.00 0.00 80 1018.0
20260508104305 70 149 6.0 14.0 0.00 0.00 0.00 80 1017.9
20260508103804 70 170 6.0 14.0 0.00 0.00 0.00 80 1017.9
20260508102804 70 142 5.0 10.0 0.00 0.00 0.00 81 1017.8
20260508100304 70 144 4.0 8.0 0.00 0.00 0.00 81 1017.5
20260508095804 70 158 5.0 9.0 0.00 0.00 0.00 81 1017.3
20260508094804 70 150 5.0 9.0 0.00 0.00 0.00 81 1017.2
20260508094305 70 145 6.0 12.0 0.00 0.00 0.00 81 1017.2
20260508093805 70 146 7.0 14.0 0.00 0.00 0.00 81 1017.1
20260508093304 70 140 7.0 12.0 0.00 0.00 0.00 81 1017.1
20260508092804 70 149 6.0 10.0 0.00 0.00 0.00 81 1017.0
20260508091804 70 147 2.0 8.0 0.00 0.00 0.00 81 1016.9
20260508091304 70 128 7.0 12.0 0.00 0.00 0.00 80 1016.9
20260508090805 70 137 5.0 9.0 0.00 0.00 0.00 81 1016.8
20260508090305 70 148 6.0 12.0 0.00 0.00 0.00 81 1016.9
20260508085805 70 161 5.0 12.0 0.00 0.00 0.00 81 1016.8
20260508085307 70 146 4.0 12.0 0.00 0.00 0.00 81 1016.7
20260508084804 70 164 7.0 12.0 0.00 0.00 0.00 80 1016.7
20260508084304 70 143 5.0 12.0 0.00 0.00 0.00 80 1016.6
20260508083805 71 126 6.0 12.0 0.00 0.00 0.00 80 1016.5
20260508083304 71 143 7.0 16.0 0.00 0.00 0.00 80 1016.4
20260508082805 71 145 4.0 21.0 0.00 0.00 0.00 80 1016.4
20260508082306 71 121 5.0 10.0 0.00 0.00 0.00 79 1016.4
20260508081804 71 154 6.0 10.0 0.00 0.00 0.00 79 1016.3
20260508081306 72 155 5.0 14.0 0.00 0.00 0.00 79 1016.3
20260508080804 72 137 3.0 9.0 0.00 0.00 0.00 79 1016.1
20260508080305 72 124 4.0 9.0 0.00 0.00 0.00 79 1016.1
20260508075806 72 162 7.0 12.0 0.00 0.00 0.00 79 1015.9
20260508075308 72 168 6.0 12.0 0.00 0.00 0.00 79 1015.9
20260508074805 72 144 6.0 12.0 0.00 0.00 0.00 78 1015.8
20260508074304 72 131 4.0 9.0 0.00 0.00 0.00 78 1015.8
20260508073305 73 149 4.0 9.0 0.00 0.00 0.00 78 1015.7
20260508072805 73 145 4.0 9.0 0.00 0.00 0.00 78 1015.6
20260508072307 73 118 7.0 14.0 0.00 0.00 0.00 77 1015.7
20260508071804 73 159 10.0 15.0 0.00 0.00 0.00 77 1015.6
20260508071304 74 161 8.0 14.0 0.00 0.00 0.00 76 1015.6
20260508070805 74 137 5.0 12.0 0.00 0.00 0.00 76 1015.5
20260508070305 74 139 4.0 9.0 0.00 0.00 0.00 76 1015.4
20260508065804 74 152 8.0 12.0 0.00 0.00 0.00 75 1015.3
20260508064804 75 158 6.0 12.0 0.00 0.00 0.00 75 1015.2
20260508063304 77 3 0.0 0.0 0.00 0.00 0.00 70 1015.0
20260508062805 77 2 0.0 0.0 0.00 0.00 0.00 70 1015.0
20260508062306 77 3 0.0 0.0 0.00 0.00 0.00 70 1015.0
20260508061804 77 3 0.0 0.0 0.00 0.00 0.00 70 1014.9
20260508061305 77 3 0.0 0.0 0.00 0.00 0.00 70 1014.7
20260508060804 77 3 0.0 0.0 0.00 0.00 0.00 70 1014.8
20260508060306 77 3 0.0 0.0 0.00 0.00 0.00 70 1014.6
20260508055805 77 3 0.0 7.0 0.00 0.00 0.00 70 1014.6
20260508055306 77 106 7.0 7.0 0.00 0.00 0.00 70 1014.6
20260508054805 77 106 7.0 10.0 0.00 0.00 0.00 70 1014.6
20260508054306 78 158 6.0 13.0 0.00 0.00 0.00 70 1014.5
20260508053805 78 157 3.0 5.0 0.00 0.00 0.00 70 1014.4
20260508053306 78 159 7.0 9.0 0.00 0.00 0.00 70 1014.4
20260508052804 78 149 7.0 12.0 0.00 0.00 0.00 70 1014.4
20260508052307 78 150 7.0 12.0 0.00 0.00 0.00 70 1014.4
20260508051804 77 152 7.0 12.0 0.00 0.00 0.00 71 1014.4
20260508051305 77 151 7.0 12.0 0.00 0.00 0.00 71 1014.5
20260508050805 78 2 0.0 0.0 0.00 0.00 0.00 69 1014.5
20260508045806 78 117 7.0 7.0 0.00 0.00 0.00 69 1014.5
20260508045306 78 117 7.0 12.0 0.00 0.00 0.00 69 1014.5
20260508044304 80 2 0.0 0.0 0.00 0.00 0.00 67 1014.5
20260508043804 80 4 0.0 0.0 0.00 0.00 0.00 67 1014.5
20260508043305 80 3 0.0 0.0 0.00 0.00 0.00 67 1014.5
20260508042805 80 3 0.0 0.0 0.00 0.00 0.00 67 1014.6
20260508040804 80 6 5.0 7.0 0.00 0.00 0.00 67 1014.6
20260508040304 80 125 7.0 7.0 0.00 0.00 0.00 67 1014.6
20260508035804 80 125 6.0 8.0 0.00 0.00 0.00 67 1014.6
20260508035306 80 131 3.0 8.0 0.00 0.00 0.00 68 1014.6
20260508034805 79 112 3.0 7.0 0.00 0.00 0.00 67 1014.6
20260508034305 79 156 7.0 9.0 0.00 0.00 0.00 67 1014.7
20260508033804 79 150 4.0 7.0 0.00 0.00 0.00 67 1014.8
20260508032804 79 123 7.0 7.0 0.00 0.00 0.00 67 1014.8
20260508031806 79 145 5.0 8.0 0.00 0.00 0.00 67 1015.2
20260508031305 79 124 7.0 12.0 0.00 0.00 0.00 67 1015.3
20260508030805 79 102 3.0 6.0 0.00 0.00 0.00 67 1015.4
20260508025804 78 118 5.0 8.0 0.00 0.00 0.00 67 1015.5
20260508025306 78 99 6.0 9.0 0.00 0.00 0.00 68 1015.7
20260508024805 78 139 6.0 12.0 0.00 0.00 0.00 68 1015.7
20260508024305 78 103 6.0 8.0 0.00 0.00 0.00 68 1015.8
20260508023805 78 102 6.0 9.0 0.00 0.00 0.00 67 1015.9
20260508023304 79 93 11.0 12.0 0.00 0.00 0.00 68 1016.0
20260508022804 79 97 5.0 12.0 0.00 0.00 0.00 69 1016.1
20260508022307 78 136 3.0 9.0 0.00 0.00 0.00 70 1016.2
20260508021805 77 133 11.0 13.0 0.00 0.00 0.00 73 1016.3
20260508021305 77 153 7.0 12.0 0.00 0.00 0.00 73 1016.4
20260508020805 79 3 0.0 0.0 0.00 0.00 0.00 66 1016.5
20260508020305 79 3 0.0 0.0 0.00 0.00 0.00 66 1016.6
20260508015306 79 3 0.0 0.0 0.00 0.00 0.00 66 1016.5
20260508014804 79 3 0.0 0.0 0.00 0.00 0.00 66 1016.6
20260508014304 79 3 0.0 0.0 0.00 0.00 0.00 66 1016.6
20260508013804 79 3 0.0 3.0 0.00 0.00 0.00 66 1016.6
20260508013304 79 105 3.0 3.0 0.00 0.00 0.00 66 1016.6
20260508012804 79 105 3.0 3.0 0.00 0.00 0.00 66 1016.6
20260508011805 80 68 10.0 10.0 0.00 0.00 0.00 66 1016.6
20260508011305 80 78 8.0 15.0 0.00 0.00 0.00 66 1016.6
20260508010805 79 132 7.0 12.0 0.00 0.00 0.00 67 1016.6
20260508010304 79 24 6.0 10.0 0.00 0.00 0.00 68 1016.6
20260508005806 78 103 5.0 13.0 0.00 0.00 0.00 69 1016.8
20260508005306 78 79 6.0 8.0 0.00 0.00 0.00 69 1016.9
20260508004805 78 100 8.0 12.0 0.00 0.00 0.00 69 1017.0
20260508004304 78 102 12.0 12.0 0.00 0.00 0.00 70 1017.0
20260508003804 78 105 9.0 14.0 0.00 0.00 0.00 70 1017.0
20260508003305 78 80 7.0 14.0 0.00 0.00 0.00 70 1017.0
20260508002805 77 84 7.0 13.0 0.00 0.00 0.00 72 1017.0
20260508001804 76 139 6.0 10.0 0.00 0.00 0.00 72 1017.1
20260508001305 76 113 4.0 9.0 0.00 0.00 0.00 74 1017.1
20260508000805 75 93 6.0 10.0 0.00 0.00 0.00 74 1017.2
20260508000305 75 105 7.0 10.0 0.00 0.00 0.00 74 1017.1
20260507235806 75 116 6.0 10.0 0.00 0.00 0.00 74 1017.0
20260507235307 75 94 5.0 8.0 0.00 0.00 0.00 75 1017.1
20260507234804 74 136 6.0 10.0 0.00 0.00 0.00 76 1017.2
20260507233804 73 115 5.0 9.0 0.00 0.00 0.00 77 1017.1
20260507233306 73 131 6.0 9.0 0.00 0.00 0.00 77 1017.1
20260507232805 73 84 4.0 7.0 0.00 0.00 0.00 78 1017.1
20260507232306 72 97 3.0 6.0 0.00 0.00 0.00 78 1017.1
20260507231804 72 106 3.0 3.0 0.00 0.00 0.00 78 1017.1
20260507231304 72 102 4.0 8.0 0.00 0.00 0.00 78 1017.1
20260507230817 72 91 3.0 7.0 0.00 0.00 0.00 78 1017.0
20260507230304 72 112 3.0 6.0 0.00 0.00 0.00 79 1017.0
20260507225804 71 126 4.0 9.0 0.00 0.00 0.00 79 1017.0
20260507225306 71 127 3.0 8.0 0.00 0.00 0.00 79 1017.0
20260507224805 71 105 8.0 8.0 0.00 0.00 0.00 80 1016.9
20260507223804 70 130 4.0 7.0 0.00 0.00 0.00 80 1016.9
20260507223305 70 151 3.0 7.0 0.00 0.00 0.00 80 1016.7
20260507222804 70 153 2.0 3.0 0.00 0.00 0.00 80 1016.7
20260507222306 70 140 2.0 5.0 0.00 0.00 0.00 80 1016.8
20260507221805 69 2 0.0 0.0 0.00 0.00 0.00 82 1016.6
20260507221306 69 6 2.0 3.0 0.00 0.00 0.00 82 1016.6
20260507220804 69 145 3.0 3.0 0.00 0.00 0.00 82 1016.6
20260507220305 69 145 4.0 9.0 0.00 0.00 0.00 82 1016.4
20260507215306 68 142 3.0 3.0 0.00 0.00 0.00 82 1016.2
20260507214804 68 137 4.0 12.0 0.00 0.00 0.00 82 1016.2
20260507214304 68 123 4.0 10.0 0.00 0.00 0.00 82 1016.1
20260507213304 68 138 6.0 12.0 0.00 0.00 0.00 83 1016.0
20260507212804 67 150 5.0 9.0 0.00 0.00 0.00 83 1016.0
20260507212307 67 139 5.0 12.0 0.00 0.00 0.00 83 1016.0
20260507211305 67 150 1.0 5.0 0.00 0.00 0.00 84 1015.9
20260507210804 66 140 1.0 3.0 0.00 0.00 0.00 84 1015.9
20260507210304 66 138 1.0 3.0 0.00 0.00 0.00 84 1015.8
20260507205805 66 130 1.0 3.0 0.00 0.00 0.00 83 1015.8
20260507205307 66 131 1.0 3.0 0.00 0.00 0.00 83 1015.7
20260507204805 66 126 1.0 3.0 0.00 0.00 0.00 83 1015.7
20260507204305 66 118 2.0 6.0 0.00 0.00 0.00 83 1015.7
20260507203805 66 101 1.0 3.0 0.00 0.00 0.00 83 1015.6
20260507203304 66 103 2.0 6.0 0.00 0.00 0.00 83 1015.6
20260507202804 66 106 3.0 8.0 0.00 0.00 0.00 83 1015.5
20260507202306 66 102 5.0 8.0 0.00 0.00 0.00 84 1015.5
20260507201804 66 105 5.0 8.0 0.00 0.00 0.00 84 1015.4
20260507201305 66 139 6.0 12.0 0.00 0.00 0.00 84 1015.5
20260507200805 66 119 3.0 9.0 0.00 0.00 0.00 84 1015.5
20260507200304 66 138 6.0 10.0 0.00 0.00 0.00 84 1015.5
20260507195805 66 153 2.0 10.0 0.00 0.00 0.00 84 1015.5
20260507194805 66 148 6.0 12.0 0.00 0.00 0.00 84 1015.3
20260507193804 66 138 5.0 10.0 0.00 0.00 0.00 84 1015.2
20260507193304 66 137 6.0 12.0 0.00 0.00 0.00 84 1015.2
20260507192804 66 139 4.0 10.0 0.00 0.00 0.00 84 1015.2
20260507192306 66 149 5.0 12.0 0.00 0.00 0.00 84 1015.2
20260507191805 66 129 3.0 10.0 0.00 0.00 0.00 84 1015.1
20260507191304 66 140 5.0 10.0 0.00 0.00 0.00 84 1015.2
20260507190804 66 140 9.0 16.0 0.00 0.00 0.00 84 1015.1
20260507190304 66 152 7.0 15.0 0.00 0.00 0.00 84 1015.0